Weather History for Saint Paul Island, AK

Change the Weather History Date:

Friday, March 15, 2013

  Actual Average Record
Temperature  
Mean Temperature 24 °F 25 °F  
Max Temperature 32 °F 29 °F 38 °F (1987)
Min Temperature 15 °F 20 °F -8 °F (1972)
Degree Days  
Heating Degree Days 41 40  
Month to date heating degree days 586 600  
Since 1 July heating degree days 8045 7519  
Cooling Degree Days 0    
Month to date cooling degree days 0  
Year to date cooling degree days 0  
Moisture  
Dew Point 24 °F    
Average Humidity 91    
Maximum Humidity 100    
Minimum Humidity 77    
Precipitation  
Precipitation 0.09 in 0.04 in 0.40 in (1965)
Month to date precipitation 1.88 0.52  
Year to date precipitation 4.73 3.40  
Snow  
Snow 0.90 in 0.30 in 3.60 in (1965)
Month to date snowfall 14.4 3.9  
Since 1 July snowfall 57.9 48.9  
Snow Depth 24.00 in    
Sea Level Pressure  
Sea Level Pressure 29.53 in    
Wind  
Wind Speed 16 mph (SSE)    
Max Wind Speed 31 mph    
Max Gust Speed 37 mph    
Visibility 6 miles    
Events Snow    
T = Trace of Precipitation, MM = Missing Value Source: NWS Daily Summary

Daily Weather History Graph

Daily Weather History Graph

Search for Another Location

Airport:

Trip Planner

Search our weather history database for the weather conditions in past years. The results will help you decide how hot, cold, wet, or windy it might be!

Date:

Astronomy

Mar. 15, 2013 Rise Set
Actual Time 9:35 AM AKDT 9:25 PM AKDT
Civil Twilight 8:57 AM AKDT 10:03 PM AKDT
Nautical Twilight 8:12 AM AKDT 10:48 PM AKDT
Astronomical Twilight 7:24 AM AKDT 11:36 PM AKDT
Moon 10:39 AM AKDT (3/15) 1:44 AM AKDT (3/15)
Length of Visible Light 13h 06m
Length of Day
11h 50m
Waxing Crescent, 16% of the Moon is Illuminated
Mar 15
Waxing Crescent
Mar 19
First Quarter
Mar 27
Full
Apr 2
Last Quarter
Apr 10
New

Hourly Weather History & Observations

Time (AKDT) Temp. Windchill Dew Point Humidity Pressure Visibility Wind Dir Wind Speed Gust Speed Precip Events Conditions
12:53 AM 15.1 °F 6.4 °F 9.0 °F 77% 29.84 in 10.0 mi SE 5.8 mph - N/A   Scattered Clouds
1:53 AM 16.0 °F 7.4 °F 10.0 °F 77% 29.83 in 10.0 mi SE 5.8 mph - N/A   Overcast
2:53 AM 16.0 °F 4.4 °F 10.0 °F 77% 29.78 in 10.0 mi East 9.2 mph - N/A   Overcast
3:53 AM 16.0 °F 3.6 °F 12.0 °F 84% 29.74 in 10.0 mi East 10.4 mph - N/A   Overcast
4:53 AM 17.1 °F 4.3 °F 12.9 °F 84% 29.69 in 10.0 mi East 11.5 mph - N/A   Overcast
5:53 AM 19.0 °F 6.8 °F 15.1 °F 85% 29.64 in 10.0 mi East 11.5 mph - N/A   Overcast
6:25 AM 19.4 °F 8.6 °F 15.8 °F 86% 29.63 in 2.0 mi East 9.2 mph - 0.00 in Snow Light Snow
6:33 AM 19.4 °F 7.9 °F 15.8 °F 86% 29.62 in 1.8 mi East 10.4 mph - 0.01 in Snow Light Snow
6:53 AM 19.9 °F 7.9 °F 18.0 °F 92% 29.60 in 1.2 mi East 11.5 mph - 0.02 in Snow Light Snow
7:45 AM 23.0 °F 10.6 °F 21.2 °F 93% 29.55 in 1.2 mi ESE 13.8 mph - 0.03 in Snow Light Snow
7:53 AM 23.0 °F 10.1 °F 21.9 °F 96% 29.55 in 1.2 mi ESE 15.0 mph - 0.04 in Snow Light Snow
8:42 AM 24.8 °F 11.5 °F 24.8 °F 100% 29.51 in 2.0 mi ESE 17.3 mph - 0.01 in Snow Light Snow
8:53 AM 25.0 °F 12.6 °F 24.1 °F 96% 29.50 in 2.5 mi ESE 15.0 mph - 0.01 in Snow Light Snow
9:01 AM 24.8 °F 11.9 °F 24.8 °F 100% 29.49 in 3.0 mi ESE 16.1 mph - 0.00 in Snow Light Snow
9:06 AM 24.8 °F 11.9 °F 24.8 °F 100% 29.49 in 2.5 mi ESE 16.1 mph - 0.00 in Snow Light Snow
9:22 AM 26.6 °F 13.8 °F 24.8 °F 93% 29.48 in 3.0 mi ESE 17.3 mph - 0.00 in Snow Light Snow
9:36 AM 26.6 °F 15.7 °F 24.8 °F 93% 29.46 in 2.5 mi ESE 12.7 mph - 0.00 in Snow Light Snow
9:40 AM 26.6 °F 13.4 °F 24.8 °F 93% 29.46 in 1.8 mi ESE 18.4 mph 21.9 mph 0.00 in Snow Light Snow
9:53 AM 26.1 °F 14.5 °F 26.1 °F 100% 29.46 in 1.0 mi ESE 13.8 mph - 0.00 in Snow Light Snow
10:45 AM 28.4 °F 17.5 °F 28.4 °F 100% 29.42 in 0.8 mi ESE 13.8 mph - 0.01 in Snow Light Snow
10:53 AM 28.0 °F 16.5 °F 28.0 °F 100% 29.42 in 1.0 mi ESE 15.0 mph - 0.01 in Snow Light Snow
11:14 AM 28.4 °F 18.0 °F 28.4 °F 100% 29.40 in 2.5 mi ESE 12.7 mph - 0.00 in Snow Light Snow
11:40 AM 30.2 °F 20.8 °F 30.2 °F 100% 29.39 in 2.5 mi SE 11.5 mph - 0.01 in   Overcast
11:49 AM 30.2 °F 20.2 °F 30.2 °F 100% 29.39 in 3.0 mi SSE 12.7 mph - 0.01 in   Overcast
11:53 AM 30.9 °F 20.7 °F 30.9 °F 100% 29.39 in 2.5 mi SSE 13.8 mph - 0.01 in   Overcast
12:20 PM 32.0 °F 22.5 °F 32.0 °F 100% 29.38 in 4.0 mi SSW 12.7 mph - 0.00 in   Overcast
12:51 PM 32.0 °F 18.6 °F 30.2 °F 93% 29.39 in 10.0 mi West 25.3 mph 33.4 mph 0.00 in   Overcast
12:53 PM 32.0 °F 18.6 °F 30.9 °F 96% 29.39 in 10.0 mi West 25.3 mph 33.4 mph 0.00 in   Overcast
12:59 PM 32.0 °F 18.9 °F 30.2 °F 93% 29.39 in 10.0 mi West 24.2 mph 32.2 mph N/A   Overcast
1:53 PM 32.0 °F 18.9 °F 28.9 °F 88% 29.42 in 9.0 mi West 24.2 mph - N/A   Overcast
2:53 PM 30.9 °F 18.1 °F 28.0 °F 89% 29.45 in 8.0 mi West 21.9 mph - N/A   Scattered Clouds
3:53 PM 30.9 °F 17.8 °F 26.1 °F 82% 29.47 in 10.0 mi West 23.0 mph - N/A   Mostly Cloudy
4:53 PM 30.9 °F 17.8 °F 26.1 °F 82% 29.49 in 10.0 mi West 23.0 mph - N/A   Mostly Cloudy
5:53 PM 30.9 °F 18.1 °F 26.1 °F 82% 29.52 in 10.0 mi West 21.9 mph - N/A   Clear
6:53 PM 30.0 °F 16.9 °F 25.0 °F 82% 29.54 in 10.0 mi WSW 21.9 mph - N/A   Partly Cloudy
7:53 PM 28.9 °F 18.2 °F 25.0 °F 85% 29.56 in 10.0 mi WSW 13.8 mph - N/A   Partly Cloudy
8:53 PM 28.0 °F 16.1 °F 24.1 °F 85% 29.57 in 10.0 mi WSW 16.1 mph - N/A   Partly Cloudy
9:53 PM 27.0 °F 17.3 °F 24.1 °F 89% 29.60 in 10.0 mi WSW 10.4 mph - N/A   Clear
10:53 PM 27.0 °F 15.6 °F 24.1 °F 89% 29.62 in 10.0 mi SW 13.8 mph - N/A   Clear
11:53 PM 27.0 °F 16.1 °F 25.0 °F 92% 29.65 in 9.0 mi WSW 12.7 mph - 0.00 in   Mostly Cloudy